Regional Weather Roundup
Issued by NWS

Home | Current Version | Previous Version | Text Only | Print | Product List | Glossary Off
Versions: 1 2 3 4 5 6 7 8 9 10 11 12 13 14 15 16 17 18 19 20 21 22 23 24 25 26 27

000
ASUS45 KCYS 220010
RWRWY

WYOMING REGIONAL WEATHER ROUNDUP
NATIONAL WEATHER SERVICE CHEYENNE WY
600 PM MDT WED JUN 21 2017

NOTE:  "FAIR" INDICATES FEW OR NO CLOUDS BELOW 12,000 FEET
WITH NO SIGNIFICANT WEATHER AND/OR OBSTRUCTIONS TO VISIBILITY.

WYZ001-220100-
YELLOWSTONE NATIONAL PARK

CITY           SKY/WX    TMP DP  RH WIND       PRES   REMARKS
LK YELLOWSTONE   N/A     71  40  32 W8        30.14F
6HR MIN TEMP:  70; 6HR MAX TEMP:  73;

W YELLOWSTONE  NOT AVBL

$$
WYZ002>013-054>058-071-098>099-220100-
NORTHERN WYOMING

CITY           SKY/WX    TMP DP  RH WIND       PRES   REMARKS
JACKSON        SUNNY     79  39  24 W12G23    30.05F
CODY           FAIR      81  47  30 N16G23    29.87S
GREYBULL       FAIR      91  44  19 NW17      29.74F
6HR MIN TEMP:  83; 6HR MAX TEMP:  93;

WORLAND        FAIR      92  42  17 VRB3      29.73F
6HR MIN TEMP:  83; 6HR MAX TEMP:  94;

SHERIDAN       FAIR      83  53  35 N5        29.82F
6HR MIN TEMP:  77; 6HR MAX TEMP:  84;

BUFFALO        FAIR      80  52  37 N5        29.88F
6HR MIN TEMP:  73; 6HR MAX TEMP:  80;

GILLETTE       FAIR      85  49  28 NE14      29.82F
6HR MIN TEMP:  80; 6HR MAX TEMP:  86;

NEWCASTLE      FAIR      86  43  22 CALM      29.82F

$$
WYZ014>020-022>026-101>103-220100-
CENTRAL WYOMING

CITY           SKY/WX    TMP DP  RH WIND       PRES   REMARKS
BIG PINEY      FAIR      82  41  23 NW18G25   30.10F
6HR MIN TEMP:  80; 6HR MAX TEMP:  86; 6HR PCP: TRACE;

PINEDALE       FAIR      73  41  31 W14G25    30.13S
DUBOIS         FAIR      77  32  19 NW31G45   30.02F
LANDER         FAIR      85  37  18 W12       29.93S
6HR MIN TEMP:  84; 6HR MAX TEMP:  91;

RIVERTON       FAIR      90  30  11 W20G28    29.89F
6HR MIN TEMP:  84; 6HR MAX TEMP:  92;

CASPER         FAIR      89  31  12 NW21G29   29.86F
6HR MIN TEMP:  87; 6HR MAX TEMP:  94;

DOUGLAS        FAIR      86  50  28 E8        29.86F
6HR MIN TEMP:  85; 6HR MAX TEMP:  91;


$$
WYZ021-027>030-104>119-220100-
SOUTHERN WYOMING

CITY           SKY/WX    TMP DP  RH WIND       PRES   REMARKS
EVANSTON       FAIR      83  42  23 W20G28    30.13F
6HR MIN TEMP:  80; 6HR MAX TEMP:  86;

KEMMERER         N/A     81  37  21 W20G29    30.14F
FORT BRIDGER   FAIR      87  33  14 W23G29    30.14S
ROCK SPRINGS   FAIR      79  39  23 SW9       30.06S
6HR MIN TEMP:  75; 6HR MAX TEMP:  90; 6HR PCP:  0.01;

DIXON          FAIR      88  32  13 W15G23    30.09F
RAWLINS        FAIR      81  35  19 W23G39    30.05F
6HR MIN TEMP:  81; 6HR MAX TEMP:  90;

SARATOGA       FAIR      81  34  18 MISG      30.10S
LARAMIE        PTSUNNY   80  34  19 W14G22    30.09F
6HR MIN TEMP:  79; 6HR MAX TEMP:  87; 6HR PCP: TRACE;

CHEYENNE       FAIR      89  34  14 NW12      29.98F
6HR MIN TEMP:  82; 6HR MAX TEMP:  92; 6HR PCP: TRACE;

TORRINGTON     FAIR      95  38  13 N8        29.79F HX  90
6HR MIN TEMP:  88; 6HR MAX TEMP:  97;

PINE BLUFFS    FAIR      90  37  15 S6        29.92S

$$




USA.gov is the U.S. government's official web portal to all federal, state and local government web resources and services.